Regional Weather Roundup
Issued by NWS

Home | Current Version | Previous Version | Text Only | Print | Product List | Glossary Off
Versions: 1 2 3 4 5 6 7 8 9 10 11 12 13 14 15 16 17 18 19 20 21 22 23 24 25 26 27 28 29 30 31 32 33 34 35 36 37 38 39 40 41 42 43 44 45 46 47 48 49 50

000
ASUS43 KLMK 121610
RWRKY
KENTUCKY REGIONAL WEATHER ROUNDUP
NATIONAL WEATHER SERVICE LOUISVILLE KY
1100 AM EST TUE DEC 12 2017

NOTE "FAIR" INDICATES FEW OR NO CLOUDS BELOW 12,000 FEET
WITH NO SIGNIFICANT WEATHER AND/OR OBSTRUCTIONS TO VISIBILITY.

KYZ001>023-026-027-061>063-070>075-121700-
WESTERN AND SOUTH CENTRAL KENTUCKY

CITY           SKY/WX    TMP DP  RH WIND       PRES   REMARKS
PADUCAH        MOSUNNY   35  17  47 NW21G31   30.19R WCI  24
HENDERSON      MOSUNNY   33  20  58 NW15G28   30.16R WCI  23
OWENSBORO      PTSUNNY   35  20  54 NW25      30.12R WCI  23
HOPKINSVILLE   MOSUNNY   37  20  49 NW20G25   30.12R WCI  27
BOWLING GREEN  CLOUDY    36  27  69 W9G21     30.09R WCI  29
GLASGOW        CLOUDY    35  23  62 NW10      30.06R WCI  27
$$

KYZ024-025-028>034-038-045-046-053-121700-
NORTH CENTRAL KENTUCKY

CITY           SKY/WX    TMP DP  RH WIND       PRES   REMARKS
LOUISVILLE/SDF MOSUNNY   35  16  45 NW20G30   30.03R WCI  24
LOUISVILLE/LOU MOSUNNY   35  19  52 NW17G29   30.03R WCI  25
FORT KNOX      MOSUNNY   34  18  51 W14G23    30.02R WCI  25
$$

KYZ035>037-039>044-047>052-055>060-089>105-121700-
NORTHEAST KENTUCKY

CITY           SKY/WX    TMP DP  RH WIND       PRES   REMARKS
LEXINGTON      PTSUNNY   34  22  61 NW16G26   29.96R WCI  24
COVINGTON      PTSUNNY   30  21  69 W16       29.95S WCI  19
FRANKFORT      CLOUDY    34  17  50 NW12G22   29.96S WCI  25
$$

KYZ054-064>069-076>088-106>120-121700-
SOUTHEAST KENTUCKY

CITY           SKY/WX    TMP DP  RH WIND       PRES   REMARKS
JACKSON        FLURRIES  32  26  78 NW13G23   29.88R WCI  22
LONDON         CLOUDY    35  26  69 NW14G26   29.94R WCI  26
SOMERSET       CLOUDY    32  28  86 NW7       29.99S WCI  26
MIDDLESBORO    DRIZZLE   37  33  86 NW14G23   29.92R WCI  28
MONTICELLO     CLOUDY    36  24  62 NW22      30.01S WCI  25
$$




USA.gov is the U.S. government's official web portal to all federal, state and local government web resources and services.